Regional Weather Roundup
Issued by NWS

Home | Current Version | Previous Version | Text Only | Print | Product List | Glossary Off
Versions: 1 2 3 4 5 6 7 8 9 10 11 12 13 14 15 16 17 18 19 20 21 22 23 24 25 26 27 28 29 30 31 32 33 34 35 36 37 38 39 40 41 42 43 44 45 46 47 48 49 50

345
ASUS45 KBOI 301010
RWRID

IDAHO REGIONAL WEATHER ROUNDUP
NATIONAL WEATHER SERVICE BOISE ID
400 AM MDT SAT JUL 30 2016

NOTE: "FAIR" INDICATES FEW OR NO CLOUDS BELOW 12000 FEET
WITH NO SIGNIFICANT WEATHER AND/OR OBSTRUCTIONS TO VISIBILITY

IDZ012-014-301100-
SOUTHWEST IDAHO


CITY           SKY/WX    TMP DP  RH WIND       PRES   REMARKS
BOISE          CLEAR     73  36  25 S6        29.81S
CALDWELL       CLEAR     66  57  72 S3        29.80S
MOUNTAIN HOME  CLEAR     68  37  31 NW6       29.81S
$$

IDZ016-017-301100-
SOUTHCENTRAL IDAHO


CITY           SKY/WX    TMP DP  RH WIND       PRES   REMARKS
BURLEY         CLEAR     64  45  49 SW6       29.90S
JEROME         CLEAR     70  43  37 SE3       29.90F
TWIN FALLS     PTCLDY    73  39  29 S13       29.90F
$$

IDZ019>023-301100-
SOUTHEAST IDAHO


CITY           SKY/WX    TMP DP  RH WIND       PRES   REMARKS
IDAHO FALLS    CLEAR     64  44  48 SW12      29.94R
POCATELLO      PTCLDY    65  40  39 CALM      29.94S
REXBURG        CLEAR     56  46  69 NE5       29.94S
$$

IDZ006-010-011-018-031-032-301100-
CENTRAL IDAHO MOUNTAINS


CITY           SKY/WX    TMP DP  RH WIND       PRES   REMARKS
MCCALL         CLEAR     56  45  66 N3        30.00S
HAILEY         CLEAR     63  36  36 NW9       30.03S
STANLEY          N/A     44  32  62 SE5       30.14S
SALMON         CLEAR     57  45  62 CALM      29.92R
CHALLIS        CLEAR     58  35  42 CALM      30.00S
$$

IDZ002-004-006-007-026-301100-
NORTHERN IDAHO


CITY           SKY/WX    TMP DP  RH WIND       PRES   REMARKS
LEWISTON       CLEAR     73  48  41 E5        29.73S
LOWELL           N/A     63  56  78 NW3       29.82S
COEUR D`ALENE  CLEAR     70  55  60 SE9       29.74F
MULLAN PASS    CLEAR     67  40  37 W5        30.02F
$$




USA.gov is the U.S. government's official web portal to all federal, state and local government web resources and services.